Location: Roanoke
(37.2710°N, 79.9420°W)
Time: 21:26:15
(UTC-05:00)

Transit 2A - Pass Details

Date: 22 November 2019
Orbit: 602 x 957 km, 66.7° (Epoch: 12 December)

Event Time Altitude Azimuth Distance (km) Brightness Sun altitude
Rises 10:08:23 0° 170° (S) 3,273 10.4 26.3°
Reaches altitude 10° 10:11:28 10° 154° (SSE) 2,278 10.3 26.6°
Maximum altitude 10:15:07 20° 109° (ESE) 1,642 8.7 26.9°
Drops below altitude 10° 10:18:33 10° 63° (ENE) 2,130 8.4 27.3°
Sets 10:21:19 0° 46° (NE) 2,992 8.9 27.5°
